Weather History for CWJX - April, 2014

Change the Weather History Date:

Tuesday, April 22, 2014

  Actual Average Record
Temperature  
Mean Temperature 56 °F -  
Max Temperature 76 °F - - ()
Min Temperature 36 °F - - ()
Degree Days  
Heating Degree Days 9    
Growing Degree Days 6 (Base 50)    
Moisture  
Dew Point 26 °F    
Average Humidity 36    
Maximum Humidity 73    
Minimum Humidity 7    
Precipitation  
Precipitation 0.00 in - - ()
Sea Level Pressure  
Sea Level Pressure 29.66 in    
Wind  
Wind Speed 13 mph ()    
Max Wind Speed 25 mph    
Max Gust Speed 37 mph    
T = Trace of Precipitation, MM = Missing Value Source: Averaged Metar Reports

Daily Weather History Graph

Daily Weather History Graph

Search for Another Location

Airport or City:

Trip Planner

Search our weather history database for the weather conditions in past years. The results will help you decide how hot, cold, wet, or windy it might be!

Date:

Astronomy

Apr. 22, 2014 Rise Set
Actual Time 6:08 AM CST 8:25 PM CST
Civil Twilight 5:32 AM CST 9:01 PM CST
Nautical Twilight 4:47 AM CST 9:46 PM CST
Astronomical Twilight 3:55 AM CST 10:39 PM CST
Moon 2:45 AM CST (4/22) 12:46 PM CST (4/22)
Length of Visible Light 15h 28m
Length of Day
14h 16m
Last Quarter, 45% of the Moon is Illuminated
Apr 22
Last Quarter
Apr 29
New
May 6
First Quarter
May 14
Full
May 21
Last Quarter

Hourly Weather History & Observations

Time (CST) Temp. Windchill Dew Point Humidity Pressure Visibility Wind Dir Wind Speed Gust Speed Precip Events Conditions
12:00 AM 41 °F - 25 °F 40% 29.92 in - East 10.4 mph - -  
12:00 AM 40.6 °F 34.3 °F 25.2 °F 54% 29.92 in - East 10.4 mph - N/A   Unknown
1:00 AM 39.0 °F 33.4 °F 29.3 °F 68% 29.92 in - East 8.1 mph - N/A   Unknown
2:00 AM 37.8 °F 32.5 °F 29.8 °F 73% 29.90 in - East 6.9 mph - N/A   Unknown
3:00 AM 36.1 °F 29.9 °F 28.2 °F 73% 29.87 in - East 8.1 mph - N/A   Unknown
4:00 AM 38.8 °F 32.6 °F 29.5 °F 69% 29.84 in - East 9.2 mph - N/A   Unknown
5:00 AM 39.2 °F 32.0 °F 29.1 °F 67% 29.81 in - East 11.5 mph - N/A   Unknown
6:00 AM 40 °F - 29 °F 53% 29.78 in - East 12.7 mph - -  
6:00 AM 39.9 °F 32.5 °F 28.9 °F 65% 29.78 in - East 12.7 mph - N/A   Unknown
7:00 AM 40.8 °F 35.0 °F 29.3 °F 64% 29.76 in - East 9.2 mph - N/A   Unknown
8:00 AM 44.8 °F 40.4 °F 30.6 °F 57% 29.75 in - East 8.1 mph - N/A   Unknown
9:00 AM 53.2 °F - 28.2 °F 38% 29.73 in - ESE 13.8 mph - N/A   Unknown
10:00 AM 63.9 °F - 25.0 °F 23% 29.69 in - SE 18.4 mph 25.3 mph N/A   Unknown
11:00 AM 66.9 °F - 26.2 °F 22% 29.66 in - SE 18.4 mph 24.2 mph N/A   Unknown
12:00 PM 72 °F - 21 °F 7% 29.63 in - SSE 25.3 mph - -  
12:00 PM 71.8 °F - 21.2 °F 15% 29.63 in - SSE 25.3 mph 34.5 mph N/A   Unknown
1:00 PM 73.0 °F - 21.9 °F 15% 29.60 in - SSE 24.2 mph 32.2 mph N/A   Unknown
2:00 PM 73.8 °F - 21.9 °F 14% 29.57 in - South 21.9 mph 29.9 mph N/A   Unknown
3:00 PM 74.8 °F - 23.5 °F 15% 29.54 in - SSE 21.9 mph 31.1 mph N/A   Unknown
4:00 PM 75.6 °F - 23.5 °F 14% 29.51 in - SSE 21.9 mph 36.8 mph N/A   Unknown
5:00 PM 76.1 °F - 24.4 °F 15% 29.48 in - SE 18.4 mph 24.2 mph N/A   Unknown
6:00 PM 74 °F - 25 °F 8% 29.46 in - SE 23.0 mph - -  
6:00 PM 73.8 °F - 24.8 °F 16% 29.46 in - SE 23.0 mph 29.9 mph N/A   Unknown
7:00 PM 70.0 °F - 27.0 °F 20% 29.45 in - ESE 21.9 mph 28.8 mph N/A   Unknown
8:00 PM 65.8 °F - 27.0 °F 23% 29.45 in - ESE 23.0 mph 28.8 mph N/A   Unknown
9:00 PM 63.7 °F - 27.9 °F 26% 29.44 in - ESE 23.0 mph 29.9 mph N/A   Unknown
10:00 PM 61.2 °F - 28.2 °F 29% 29.42 in - East 21.9 mph 27.6 mph N/A   Unknown
11:00 PM 59.0 °F - 28.8 °F 32% 29.40 in - East 21.9 mph 28.8 mph N/A   Unknown